Location: Enid
(36.3960°N, 97.8780°W)
Time: 01:56:59
(UTC-05:00)

Hubble Space Telescope - Visible Passes

Search period start: 20 April 2018 00:00
Search period end: 30 April 2018 00:00
Orbit: 537 x 541 km, 28.5° (Epoch: 19 April)

Date Brightness Start Highest point End Pass type
(mag) Time Alt. Az. Time Alt. Az. Time Alt. Az.
25 Apr 3.0 22:04:27 10° SW 22:05:16 14° SSW 22:05:16 14° SSW visible
26 Apr 2.5 21:53:51 10° SW 21:56:00 20° SSW 21:56:00 20° SSW visible
27 Apr 2.1 21:43:20 10° SW 21:46:36 24° S 21:46:36 24° S visible
28 Apr 1.9 21:32:51 10° SW 21:36:17 25° S 21:37:05 24° SSE visible
29 Apr 2.0 21:22:24 10° SW 21:25:54 26° S 21:27:28 21° SE visible
